User: anonymous   Login
Location: Unspecified
(0.0000°N, 0.0000°E)
Time: 15:38:36
(UTC+00:00)
Language:

MERIDIAN 7 - Orbit

View from above orbital plane
View from above orbital plane
View from above satellite
View from above satellite

Ground track
Ground track

The orbit data is extracted from the following two-line orbital elements,

1 40296U 14069A   21336.73532715  .00000051  00000-0  00000-0 0  9995
2 40296  63.3159  56.4381 7106567 273.6544 345.7021  2.00638140 51978
Epoch (UTC): 02 December 2021 17:38:52
Eccentricity: 0.7106567
inclination: 63.3159°
perigee height: 1305 km
apogee height: 39046 km
right ascension of ascending node: 56.4381°
argument of perigee: 273.6544°
revolutions per day: 2.00638140
mean anomaly at epoch: 345.7021°
orbit number at epoch: 5197

The dashed part of the orbit path shows where the satellite is in the earth's shadow,  

DLR